Location: Paris
(18.5000°N, 73.9167°W)
Time: 12:39:33
(UTC+00:00)

deb Centaur AC-2 - Pass Details

Date: 18 April 2024
Orbit: 584 x 1344 km, 30.0° (Epoch: 25 May)

Event Time Altitude Azimuth Distance (km) Brightness Sun altitude
Rises 23:33:36 0° 297° (WNW) 2,881 9.5 -5.4°
Reaches altitude 10° 23:35:47 10° 299° (WNW) 2,033 8.3 -5.9°
Maximum altitude 23:40:29 76° 24° (NNE) 740 4.4 -7.0°
Drops below altitude 10° 23:46:10 10° 111° (ESE) 2,436 6.4 -8.3°
Enters shadow 23:46:13 10° 111° (ESE) 2,459 6.4 -8.3°
